Location: Bo?a Wola
(50.4192°N, 19.7966°E)
Time: 11:29:55
(UTC+00:00)

BlueWalker 3 - Pass Details

Date: 15 June 2024
Orbit: 480 x 492 km, 53.2° (Epoch: 15 July)

Event Time Altitude Azimuth Distance (km) Brightness Sun altitude
Rises 01:10:47 0° 283° (WNW) 2,539 5.3 -9.2°
Reaches altitude 10° 01:12:59 10° 288° (WNW) 1,660 4.4 -9.0°
Maximum altitude 01:16:41 57° 8° (N) 571 2.6 -8.7°
Drops below altitude 10° 01:20:22 10° 88° (E) 1,660 5.1 -8.3°
Sets 01:22:34 0° 92° (E) 2,541 6.0 -8.1°
